GW3853 Weather Reports


Display with metric or nautical units.
time (UTC)temp
F
wind
direction
speed
MPH
gust
MPH
rain 1hr
in
rain 24hr
in
rain mn
in
humidity
%
barometer
mb
20260506033024 57 260 0.0 0.0 0.00 0.03 0.03 95 1007.1
20260506031510 57 226 0.0 0.0 0.00 0.03 0.03 95 1007.2
20260506021508 58 219 0.0 2.0 0.00 0.03 0.03 94 1007.8
20260506020013 58 335 0.0 0.0 0.00 0.03 0.03 94 1007.8
20260506014520 58 335 0.0 2.0 0.00 0.03 0.03 94 1007.7
20260506011519 58 354 0.0 0.0 0.00 0.03 0.03 93 1007.2
20260506010012 59 354 0.0 2.0 0.00 0.03 0.03 93 1006.9
20260506004532 59 281 0.0 2.0 0.00 0.03 0.03 93 1006.8
20260506003021 59 340 0.0 2.0 0.00 0.03 0.03 93 1006.6
20260505234513 60 1 0.0 2.0 0.03 0.03 0.03 91 1006.0
20260505233027 61 1 0.0 2.0 0.03 0.03 0.03 90 1006.4
20260505224511 65 90 1.0 4.0 0.00 0.00 0.00 74 1006.1
20260505223020 69 307 2.0 16.0 0.00 0.00 0.00 63 1005.7
20260505221523 72 1 3.0 5.0 0.00 0.00 0.00 50 1005.1
20260505213021 74 198 2.0 5.0 0.00 0.00 0.00 47 1002.7
20260505201518 76 26 3.0 11.0 0.00 0.00 0.00 44 1002.6
20260505193034 76 108 2.0 7.0 0.00 0.00 0.00 45 1002.9
20260505191522 77 162 3.0 9.0 0.00 0.00 0.00 44 1002.8
20260505190021 77 199 1.0 9.0 0.00 0.00 0.00 44 1003.2
20260505184522 78 98 2.0 9.0 0.00 0.00 0.00 42 1003.4
20260505183035 80 25 2.0 8.0 0.00 0.00 0.00 37 1003.5
20260505181503 80 157 3.0 7.0 0.00 0.00 0.00 37 1003.8
20260505173006 79 200 1.0 7.0 0.00 0.00 0.00 39 1004.3
20260505171511 78 33 3.0 10.0 0.00 0.00 0.00 40 1004.5
20260505170003 78 232 1.0 6.0 0.00 0.01 0.00 39 1004.9
20260505163008 76 93 3.0 12.0 0.00 0.03 0.00 41 1005.4
20260505124516 60 207 2.0 4.0 0.00 0.04 0.00 1007.3
20260505111521 0 0.0 0.0 0.00 0.04 0.00 1007.6
20260505101523 0 0.0 0.0 0.00 0.04 0.00 1007.5
20260505100024 47 0.0 2.0 0.00 0.04 0.00 1007.4
20260505094524 47 237 1.0 2.0 0.00 0.04 0.00 82 1007.4
20260505093008 46 249 1.0 2.0 0.00 0.04 0.00 83 1007.4
20260505091513 46 218 0.0 2.0 0.00 0.04 0.00 83 1007.4
20260505090019 47 248 1.0 2.0 0.00 0.04 0.00 82 1007.5
20260505084540 46 217 1.0 2.0 0.00 0.04 0.00 83 1007.6
20260505083027 47 229 0.0 2.0 0.00 0.04 0.00 83 1007.7
20260505081516 46 228 1.0 2.0 0.00 0.04 0.00 83 1007.8
20260505080015 47 228 0.0 2.0 0.00 0.04 0.00 81 1007.7
20260505074520 47 228 0.0 2.0 0.00 0.04 0.00 81 1007.7
20260505073025 46 228 0.0 2.0 0.00 0.04 0.00 81 1007.8
20260505071529 46 228 0.0 1.0 0.00 0.04 0.00 81 1007.8
20260505070012 46 228 0.0 2.0 0.00 0.04 0.00 81 1007.8
20260505064520 47 225 1.0 2.0 0.00 0.04 0.00 81 1007.7
20260505063029 46 225 0.0 2.0 0.00 0.04 0.00 81 1007.7
20260505061510 46 225 0.0 2.0 0.00 0.04 0.00 82 1007.7
20260505060011 46 237 1.0 2.0 0.00 0.04 0.00 83 1007.7
20260505054515 45 221 1.0 2.0 0.00 0.04 0.00 85 1007.8
20260505053006 45 236 0.0 2.0 0.00 0.04 0.00 87 1007.8
20260505051505 45 236 1.0 2.0 0.00 0.04 0.00 87 1007.7
20260505041507 45 291 0.0 0.0 0.00 0.04 0.00 87 1007.4
20260505040009 46 291 0.0 0.0 0.00 0.04 0.00 87 1007.3